Torna al catalogo

CZ-6A DEB

AttivoPO
NORAD 60644·DEBRIS·🇨🇳 China

Lanciato Aug 6, 2024 da Taiyuan Satellite Launch Center

Loading…

Prossimi Passaggi (prossime 24 ore)

TLE

AggiornatoSource: Space-Track

Epoca: Sep 13, 2026, 22:56 UTC

1 60644U 24140AV  26256.95563890  .00017238  00000-0  14267-2 0  9990
2 60644  89.0011 257.1974 0062208 201.4056 158.4575 14.97274261113263

Traccia CZ-6A DEB in tempo reale con AllMySat

Download on the App Store